RH
81 80 79 77 74 73 73 72 70 69 68 67 68 71 70 72 74 78 82 84 98 98 82 84 80 95 95 94 98 82 93 86 98 97 98 92 94 93 93 78 84 94 94 91 84 94 88 50 47 50 58 63 66 67
83 82 80 78 77 78 76 76 74 71 70 67 71 69 69 73 73 74 84 83 96 99 87 68 69 67 66 65 78 85 88 84 86 97 96 96 91 79 87 92 94 95 95 95 81 65 52 62 67 59 65 69 67 69
85 83 81 81 79 76 74 73 72 72 73 68 69 66 74 74 73 75 80 82 100 95 95 92 86 51 57 67 67 92 81 82 90 85 94 93 96 92 93 91 94 85 94 94 77 82 75 59 57 52 54 57 59 63
86 85 80 79 78 77 77 73 73 72 70 70 70 72 75 80 79 78 85 85 97 97 100 84 53 60 58 66 65 80 78 72 86 85 96 95 95 90 94 91 87 92 97 95 92 72 87 54 55 52 52 50 52 52
87 84 82 80 80 78 74 74 75 72 73 74 75 76 78 77 80 82 88 98 89 85 98 92 72 56 48 72 96 99 98 97 97 97 97 95 90 96 93 85 95 97 96 98 96 82 74 62 51 47 51 52 49 50
88 85 83 82 80 76 76 77 76 75 78 77 78 79 80 82 87 89 92 89 87 84 99 93 69 82 67 70 97 98 99 98 98 96 97 97 97 97 96 95 95 93 93 93 90 55 54 49 47 44 48 48 46 46
88 87 85 84 80 78 78 78 77 80 79 80 80 83 85 88 78 97 93 74 81 87 95 97 89 81 86 88 96 98 98 98 98 98 96 96 96 96 95 94 93 95 96 79 56 53 65 56 56 47 47 47 46 44
88 88 87 82 80 81 80 78 81 81 82 82 83 86 84 70 71 84 92 97 97 74 89 98 93 85 81 93 97 98 98 96 94 97 96 95 91 94 95 94 96 96 96 94 70 53 53 54 53 54 51 51 55 56
91 89 85 83 84 84 80 83 82 83 81 82 53 60 70 59 78 85 95 98 100 98 95 96 98 97 86 93 97 97 98 95 95 95 96 78 86 95 95 95 95 96 96 96 79 65 59 59 58 58 59 60 66 67
91 87 86 86 86 79 86 84 84 83 77 52 51 54 85 82 95 99 94 98 95 98 95 98 90 95 95 93 95 96 95 96 96 96 88 94 95 92 95 95 95 96 97 95 92 92 84 86 83 82 84 74 70 71
88 90 88 88 82 80 86 85 86 79 60 67 98 100 90 66 68 89 89 90 95 93 96 98 97 94 87 96 95 96 95 94 95 94 86 95 94 93 95 94 95 95 95 96 94 94 88 85 86 87 88 84 82 81
86 91 88 89 75 86 85 87 82 76 82 89 96 99 61 74 86 69 96 86 91 100 89 99 92 91 95 97 96 93 94 87 96 87 89 95 94 94 94 94 94 95 94 94 94 94 93 92 88 89 90 92 93 94
86 87 90 84 73 88 85 82 76 54 55 61 57 77 80 88 89 92 100 91 96 87 92 90 90 96 92 90 96 94 88 99 83 91 95 96 94 94 95 94 94 94 93 92 94 95 95 95 94 92 93 96 94 94
87 87 85 39 86 85 82 43 41 43 39 87 82 83 95 100 100 99 97 97 89 100 88 91 92 96 93 94 96 88 98 79 90 94 96 95 95 95 92 92 88 92 88 87 90 87 86 84 84 84 86 87 86 87
92 77 35 62 91 80 42 39 41 37 50 89 86 100 100 93 95 96 94 96 83 82 92 90 93 91 90 85 89 78 81 99 91 95 95 95 93 79 78 77 80 78 78 80 81 81 81 82 85 90 87 81 79 78
93 40 44 90 84 50 38 40 38 44 70 89 90 98 87 96 96 96 91 89 76 85 85 91 96 91 96 92 86 96 88 98 96 95 94 91 86 85 82 78 81 84 85 85 86 87 91 93 96 96 86 84 84 82
79 79 84 85 46 35 40 41 45 94 93 91 96 98 100 100 99 93 73 68 56 88 94 90 92 99 89 92 94 93 96 95 92 92 89 81 86 88 85 82 82 85 88 90 92 93 95 93 88 90 98 94 88 89
93 83 67 54 33 41 44 54 73 91 98 100 96 97 96 87 87 75 71 68 76 89 79 98 79 92 98 96 94 95 94 93 90 86 86 86 87 88 86 88 91 92 93 95 95 95 93 94 99 100 92 91 89 90
89 66 72 38 38 47 63 73 74 99 97 97 95 98 94 77 65 64 65 59 62 63 84 90 92 100 94 94 95 94 94 84 84 86 89 96 95 92 90 89 90 94 98 98 93 99 100 100 100 100 99 93 95 98
50 48 42 36 38 47 76 90 83 91 96 96 96 97 96 95 73 74 66 61 67 87 92 95 95 94 94 94 94 94 82 68 71 83 87 89 95 96 95 95 95 91 88 87 95 91 89 91 95 95 97 97 98 98
47 45 43 36 44 56 93 100 97 100 100 96 99 97 96 96 90 87 89 69 87 96 95 95 94 94 95 96 90 87 84 76 82 76 83 90 95 95 94 88 90 93 96 98 98 96 95 100 99 99 94 98 100 90
58 50 46 42 52 68 95 99 98 96 96 95 93 96 98 96 96 96 89 92 96 95 94 94 93 92 90 90 93 93 89 88 89 89 92 86 90 92 96 99 93 96 99 100 100 100 99 99 95 98 94 97 93 89
51 48 49 50 65 73 77 83 85 98 82 88 95 93 95 97 97 88 98 96 94 95 96 93 89 90 89 91 90 88 85 85 92 92 91 93 94 96 97 97 97 100 99 100 98 97 97 99 98 99 93 90 94 94
53 68 92 85 85 78 91 97 95 97 99 99 99 97 97 100 94 93 98 97 94 86 88 89 83 80 80 87 94 100 96 90 90 89 87 85 89 91 91 93 96 100 100 97 93 91 91 92 97 93 95 95 94 95
68 79 86 94 96 85 98 98 100 95 100 100 99 97 96 99 96 97 95 96 93 92 90 90 90 90 94 97 95 96 92 90 92 96 95 90 85 83 84 86 90 98 100 98 99 99 95 91 91 95 95 95 94 99
96 100 94 100 98 85 99 99 100 100 100 100 100 100 99 93 91 97 96 98 97 96 95 96 95 91 92 94 94 93 94 91 90 89 95 95 94 94 98 99 99 94 100 100 100 100 98 95 94 96 94 94 99 98
96 99 98 78 95 90 95 89 86 96 100 98 100 98 94 93 95 90 95 95 95 92 91 91 90 90 92 90 89 90 87 83 81 80 89 96 95 96 99 100 99 99 100 98 99 100 100 100 98 97 98 97 96 98
95 95 97 96 96 97 99 100 100 100 100 95 94 95 95 87 92 96 96 95 92 92 92 91 92 90 92 92 90 84 80 79 79 82 85 84 85 94 91 94 100 100 96 95 100 100 100 99 100 99 100 99 95 96
97 93 91 100 99 100 100 100 99 99 93 97 96 98 97 94 94 98 99 96 95 95 96 95 91 91 93 88 88 86 83 75 77 94 97 98 85 84 87 91 95 97 94 92 90 100 100 100 100 100 99 98 98 97
98 96 94 100 98 99 99 99 100 99 99 99 98 97 96 97 96 96 96 96 95 93 94 94 92 93 89 85 86 87 87 87 86 85 97 97 93 91 90 96 99 98 95 96 94 84 79 83 82 83 88 91 92 96
99 98 97 98 100 100 100 100 100 97 100 100 100 99 97 99 92 93 95 96 95 93 94 94 95 94 94 87 86 86 88 92 94 94 94 94 95 90 96 99 100 96 97 96 95 89 86 86 92 94 93 94 95 97
97 100 100 100 99 98 97 100 100 100 100 100 100 100 99 99 98 93 89 94 96 94 96 92 88 89 89 90 84 82 95 93 90 91 97 99 92 93 96 100 99 96 95 96 90 89 89 93 96 96 95 95 95 96
100 100 99 100 99 98 97 97 99 98 100 100 100 100 100 99 95 82 94 95 90 87 89 88 87 80 78 78 80 82 86 87 88 98 98 100 100 97 98 99 96 99 92 84 88 91 93 95 96 96 96 96 96 96
Wind_Speed
15 17 19 21 22 24 25 27 28 28 28 29 29 31 30 29 28 26 24 22 8 3 5 8 6 3 2 3 3 3 3 2 1 1 2 3 2 1 4 10 7 1 5 5 6 5 9 3 1 3 2 4 4 7
16 18 20 22 24 26 28 29 29 29 30 31 31 31 31 31 31 28 20 15 9 4 6 18 22 24 23 26 8 4 4 4 4 1 1 1 2 4 4 3 4 2 3 2 5 5 3 5 5 6 5 6 4 5
17 20 21 24 26 29 29 30 31 32 32 32 31 32 34 33 33 29 27 16 4 2 5 2 6 15 13 24 26 5 5 7 4 4 3 3 6 2 2 3 3 4 3 3 8 4 9 9 7 7 6 4 6 4
19 22 24 26 28 30 31 32 32 31 31 32 32 35 35 34 31 26 22 15 6 2 2 5 5 11 14 8 12 23 21 10 3 4 5 4 3 3 3 3 7 3 5 5 6 7 11 4 8 7 7 9 11 11
21 22 24 27 29 31 33 33 32 32 33 33 34 35 34 30 25 19 11 6 9 3 3 4 16 3 11 12 19 23 19 11 4 3 3 3 3 4 3 4 1 2 2 2 4 9 5 6 7 7 8 13 11 16
22 23 25 28 30 32 33 32 31 33 35 35 34 32 27 18 16 5 3 5 2 5 2 3 4 4 10 19 16 11 3 3 2 3 2 2 2 2 2 2 3 6 7 8 6 6 3 3 8 8 12 14 14 17
23 24 26 29 31 32 32 31 31 35 35 35 32 25 12 11 9 6 1 2 4 1 2 4 4 3 7 5 3 2 6 2 1 2 2 2 2 3 2 3 8 8 7 8 4 3 6 9 6 11 15 16 21 20
24 25 28 30 32 32 30 29 33 34 35 32 25 13 5 5 3 4 11 2 2 1 1 1 4 4 7 3 3 2 2 2 5 2 2 4 3 4 2 13 7 5 7 9 8 8 7 9 12 14 13 15 19 18
25 27 29 31 32 30 28 31 33 33 32 27 16 4 1 4 4 5 12 6 2 2 1 1 3 3 5 2 2 2 1 3 2 3 3 3 4 4 10 11 9 11 7 8 13 13 13 13 16 17 17 17 20 19
25 27 29 31 29 26 30 32 31 29 28 16 7 3 3 3 12 5 2 2 3 3 3 2 2 3 3 2 2 4 2 2 2 3 1 4 3 10 13 12 12 10 8 9 14 13 14 18 19 18 18 14 16 16
27 28 30 30 25 27 31 31 28 26 10 8 6 1 7 10 1 4 3 4 3 4 3 2 2 6 2 2 2 3 1 2 3 4 3 4 5 12 13 15 14 14 14 15 17 16 16 17 16 16 17 17 23 25
28 29 31 28 21 30 31 28 24 19 10 5 5 4 5 6 4 6 1 4 4 2 5 4 6 3 3 2 2 3 2 3 4 2 3 3 6 13 12 15 17 15 15 18 24 18 23 23 23 21 19 21 24 25
29 31 31 23 23 30 29 24 19 16 8 2 5 5 4 4 8 6 6 4 4 5 3 7 8 3 2 2 1 3 5 2 1 4 3 3 7 9 11 11 15 22 26 26 24 27 28 26 28 25 22 24 24 24
29 33 28 17 29 30 26 19 18 9 5 4 5 7 4 4 1 3 1 2 4 3 8 8 4 2 2 3 3 4 2 3 3 4 3 4 8 9 10 10 13 14 15 16 18 21 21 21 21 23 23 21 21 20
29 31 15 29 28 29 20 12 12 10 6 3 5 3 3 3 3 3 3 3 3 7 5 4 4 2 2 3 3 3 5 4 3 2 2 4 6 8 10 11 11 11 11 14 16 17 17 18 20 21 22 21 21 20
28 19 15 28 27 24 17 6 11 5 5 4 5 3 4 2 3 3 4 6 3 4 5 2 2 3 4 2 4 4 3 3 2 2 2 3 7 8 9 9 14 15 16 16 17 17 17 18 17 17 22 21 19 18
23 10 28 24 26 16 13 4 5 6 4 4 1 2 2 2 3 4 6 3 8 4 2 2 4 1 2 3 3 4 3 3 5 4 5 7 8 7 10 14 15 16 16 16 16 17 17 18 20 19 16 16 14 13
23 28 21 22 21 8 4 7 5 4 4 2 1 3 2 2 3 4 3 2 3 3 2 2 2 5 3 3 2 2 4 6 6 6 6 7 11 13 13 13 14 14 14 15 17 18 19 18 15 14 16 12 13 12
24 18 15 21 14 3 4 5 6 3 2 1 2 2 2 2 4 7 5 5 5 6 3 3 5 3 3 3 3 4 4 4 5 5 7 13 14 13 12 13 14 15 16 16 17 16 16 16 14 13 12 13 12 11
17 11 18 12 8 2 5 3 3 4 1 1 1 2 2 2 4 4 6 6 4 3 5 4 3 2 2 3 4 4 5 7 5 6 6 8 12 14 14 13 13 14 15 15 14 13 13 14 13 14 12 8 9 9
8 12 11 10 4 8 6 1 4 1 2 1 2 2 2 2 6 7 6 6 5 3 4 3 3 3 8 10 12 11 12 9 3 3 3 4 8 10 12 14 13 13 13 13 14 13 13 12 13 12 13 10 10 8
6 12 5 5 5 4 4 4 2 1 2 1 2 3 3 3 3 4 2 6 3 3 3 3 5 5 9 11 10 14 12 16 16 15 12 9 5 6 9 11 13 13 12 12 12 12 13 13 12 12 12 12 10 7
8 7 4 8 5 5 2 4 4 6 3 3 2 3 3 3 2 3 3 3 2 5 6 7 8 9 10 11 14 19 17 15 13 12 12 12 11 10 10 11 13 12 12 13 12 13 14 12 12 13 13 11 10 10
6 6 4 3 3 1 2 4 2 3 3 4 3 2 3 2 3 3 3 2 1 4 6 6 3 3 6 9 9 9 11 12 14 15 11 10 10 9 8 7 9 14 16 14 14 16 15 16 13 12 13 11 8 10
5 6 4 5 3 5 5 5 5 4 2 2 3 3 3 3 2 2 1 2 1 1 3 5 7 6 2 1 5 7 8 6 7 9 9 11 11 12 11 10 8 13 18 18 17 17 18 17 15 15 14 12 13 10
5 4 3 1 3 3 1 2 2 0 1 3 1 3 2 2 3 2 2 2 1 1 1 2 1 1 3 5 2 5 7 5 1 3 4 6 10 14 13 11 11 11 18 19 16 17 18 17 17 17 17 15 12 12
3 3 2 3 1 2 3 3 2 3 2 1 2 3 2 2 2 1 1 1 1 2 2 1 2 2 1 2 2 3 4 4 3 3 5 4 2 6 12 14 14 14 18 18 16 18 18 17 18 18 18 17 15 12
2 1 1 3 3 2 3 2 2 1 2 2 1 2 3 5 2 1 1 2 2 2 2 3 2 0 1 0 2 5 4 1 3 4 2 2 4 4 7 12 13 12 13 17 16 17 16 17 16 17 17 17 17 12
2 2 1 4 3 3 1 2 2 1 1 1 3 1 2 1 1 1 2 2 3 2 4 4 2 2 2 1 2 3 8 6 3 3 2 2 6 1 10 12 13 14 14 19 21 17 15 14 14 15 14 14 13 12
2 2 2 2 2 1 2 1 1 2 0 1 1 1 1 2 1 3 3 3 3 3 3 4 4 4 2 1 1 1 2 3 7 7 1 3 7 12 13 15 17 15 15 20 23 22 18 16 15 14 13 14 14 15
2 1 2 2 1 2 2 0 0 1 2 2 2 2 2 2 2 5 5 5 5 3 3 3 3 3 2 1 2 2 1 2 2 5 7 9 11 11 15 16 16 13 17 20 21 20 19 17 15 15 14 14 14 14
3 2 2 1 2 2 1 2 1 1 2 2 2 1 3 2 1 4 6 11 9 7 4 2 3 1 2 2 1 4 3 4 3 7 8 10 11 14 15 15 11 17 20 20 20 18 16 14 14 14 13 12 13 13
2 2 2 2 2 1 1 2 3 3 2 1 1 1 2 2 4 1 6 10 7 5 5 2 5 5 2 0 4 4 2 2 6 7 9 10 11 11 13 13 18 18 19 18 16 15 14 13 13 11 10 11 12 12
Wind_Direction
341 339 339 340 339 337 334 331 330 328 326 325 323 323 324 326 323 319 308 301 239 220 272 211 220 192 288 195 200 249 289 336 47 194 235 251 264 202 290 289 289 221 162 188 213 224 258 318 130 200 299 277 265 305
338 337 338 337 336 333 331 329 328 327 326 325 325 323 324 321 316 315 301 300 258 223 257 267 261 260 241 246 252 203 217 170 221 146 281 57 323 291 254 272 299 249 340 303 209 227 292 355 341 325 287 269 307 307
338 335 337 336 336 333 331 328 328 327 327 325 325 323 324 318 314 310 302 294 200 269 293 4 251 288 273 254 246 238 233 208 200 181 187 223 238 226 260 266 320 288 58 275 339 11 341 330 318 327 311 306 10 38
332 332 332 334 334 332 330 331 330 329 329 326 325 323 321 318 316 312 301 276 179 165 241 281 312 292 307 282 252 231 243 244 189 181 217 212 243 228 252 249 277 301 350 322 270 309 310 328 354 340 345 52 60 62
332 332 334 336 333 332 332 332 331 332 330 326 325 324 326 326 325 316 309 246 205 179 225 283 311 294 306 307 272 248 227 221 188 182 183 219 225 223 231 258 46 345 295 279 273 329 275 291 326 354 39 63 69 87
332 333 336 334 333 334 334 332 332 332 329 327 326 328 329 337 341 354 27 58 193 203 79 322 293 291 329 332 322 356 11 130 155 156 189 233 4 275 303 346 16 329 294 275 257 327 59 72 40 55 76 79 85 89
334 336 335 334 334 334 333 332 331 331 328 328 330 331 338 358 34 53 146 149 139 199 73 314 312 276 320 305 325 13 29 36 25 86 43 350 345 4 24 332 331 329 321 344 335 344 16 25 73 74 81 84 87 87
336 335 335 335 335 333 333 334 333 332 328 330 332 337 342 9 58 34 25 296 318 48 68 331 290 337 6 331 311 3 18 29 20 38 12 360 6 16 36 334 330 336 331 38 40 79 94 91 87 77 80 88 85 85
337 336 338 337 335 335 335 335 334 333 330 332 334 334 358 43 42 320 320 318 17 67 9 354 349 313 352 320 309 315 332 60 34 38 18 35 3 32 317 344 12 30 34 60 66 74 82 82 83 80 82 80 88 85
339 340 340 338 335 337 338 337 337 335 333 336 347 21 2 2 324 312 354 33 11 340 27 65 292 291 322 317 305 328 15 61 48 43 22 24 46 356 354 16 22 28 55 69 72 67 73 72 71 71 72 75 79 83
341 340 340 337 336 340 339 338 340 340 340 358 22 334 318 338 47 29 26 59 333 16 358 323 353 330 306 332 323 1 27 18 48 18 38 26 7 350 359 27 28 39 49 58 63 58 64 69 76 77 69 67 69 71
338 339 338 336 338 341 339 340 344 344 329 311 298 303 334 28 31 69 340 338 35 356 328 351 331 298 311 322 321 350 84 37 39 338 48 26 347 346 13 24 31 39 48 55 58 60 56 58 64 67 67 68 68 71
337 336 338 337 342 343 343 345 347 337 329 331 35 45 33 326 36 55 351 331 342 339 351 330 325 293 315 4 332 14 67 71 48 40 47 14 337 0 17 30 38 35 41 44 46 50 54 54 52 56 60 59 68 69
333 336 340 344 344 345 347 352 353 355 27 66 53 19 70 358 20 252 245 262 264 288 309 311 289 334 353 345 350 68 32 65 61 48 28 353 351 8 25 33 43 42 44 48 48 52 53 56 56 56 59 63 70 68
333 337 341 347 344 346 352 5 12 45 51 63 55 21 345 244 250 247 264 293 287 285 290 301 279 314 342 44 18 52 40 60 54 51 44 5 7 27 36 39 45 49 49 50 47 52 54 58 59 55 56 66 73 77
334 342 338 340 342 347 354 12 29 57 56 65 50 14 297 354 306 333 312 310 297 325 299 238 332 39 23 42 43 28 78 72 95 69 66 35 34 36 41 46 51 51 51 53 50 54 54 53 57 61 63 63 67 72
339 340 334 338 342 350 2 44 37 46 101 45 325 239 243 271 262 301 306 287 315 301 308 59 50 20 322 54 51 14 34 92 104 85 70 59 51 42 46 56 55 53 50 48 50 50 54 64 67 58 50 51 60 64
336 336 337 340 348 360 26 37 77 70 51 270 55 299 305 274 291 326 296 290 312 342 40 59 58 37 35 39 43 66 74 74 68 73 65 52 55 57 60 64 60 57 56 54 59 59 57 51 44 38 41 43 53 50
330 326 338 345 357 13 59 32 38 106 233 278 321 308 301 320 353 333 326 1 53 48 79 45 53 36 25 7 54 85 85 93 97 82 63 47 51 54 56 56 54 50 50 48 48 47 49 49 44 35 32 34 37 27
331 336 342 351 8 62 50 2 24 90 110 301 347 319 309 21 357 355 21 31 41 55 47 47 27 10 357 340 18 62 97 113 111 96 72 51 48 56 52 48 47 52 54 51 51 42 41 39 34 27 20 20 12 5
332 342 350 10 49 55 84 2 33 95 282 56 287 334 356 335 28 21 17 2 45 33 61 25 22 33 39 48 45 57 52 69 61 67 104 93 62 67 60 58 60 56 53 43 36 28 27 16 10 7 5 9 356 355
323 337 356 12 69 54 76 29 134 270 62 308 21 341 25 11 3 22 5 35 51 21 13 9 17 32 48 43 36 47 62 73 75 80 80 90 66 53 48 39 41 39 36 26 21 13 8 6 3 355 2 359 1 10
351 11 39 20 64 41 280 0 62 356 67 327 8 32 21 9 3 346 64 49 61 7 7 35 50 58 68 58 67 66 72 75 68 67 74 79 78 77 73 56 43 31 15 12 12 11 11 5 6 355 359 4 11 14
17 44 50 49 55 235 5 17 31 34 38 27 41 22 356 324 329 56 71 54 55 14 34 35 52 76 61 48 46 42 46 70 82 74 66 76 69 55 53 47 40 31 23 14 13 11 9 7 0 6 6 4 3 359
64 340 56 350 331 48 33 12 352 41 49 333 60 357 336 340 67 64 104 162 121 47 34 53 65 65 88 73 56 49 42 59 73 75 64 62 72 73 57 50 42 29 15 12 6 359 359 1 3 359 357 357 343 341
70 312 65 277 325 82 182 55 35 278 88 28 293 278 350 73 71 170 197 161 148 167 132 71 70 79 60 51 40 16 6 10 141 138 116 84 64 58 42 23 4 14 9 6 358 354 350 351 351 349 346 345 338 329
61 326 332 26 127 99 68 44 46 93 74 84 299 10 51 76 223 219 113 62 115 150 157 146 112 96 84 9 4 350 352 348 210 188 173 165 105 42 26 12 354 351 356 356 2 354 344 339 341 341 335 335 333 328
131 46 64 308 55 11 122 64 74 122 239 253 88 19 161 188 181 103 88 149 134 159 178 172 173 180 355 86 39 32 34 91 130 142 173 262 272 261 349 354 355 350 348 358 353 345 346 341 339 336 334 330 330 333
49 359 118 21 15 37 83 137 193 252 356 127 136 232 245 243 236 153 159 173 162 148 174 175 171 143 121 122 121 80 50 55 197 59 48 316 345 293 331 345 349 349 347 351 355 351 348 341 336 334 329 336 339 341
355 353 86 65 81 5 259 170 219 248 285 154 245 341 315 272 209 192 193 187 182 165 157 163 162 161 125 123 121 190 182 62 49 51 103 277 307 327 338 342 343 344 345 347 346 347 350 350 349 353 356 357 359 354
327 34 72 66 135 254 231 207 43 68 37 25 16 143 230 292 264 221 205 193 178 148 116 133 159 178 178 121 33 23 132 222 308 337 335 333 334 334 340 342 340 338 341 340 342 344 342 342 347 347 349 352 355 353
15 68 117 70 304 292 85 67 28 52 337 37 308 350 351 35 286 203 211 200 198 198 179 129 106 118 242 242 273 340 290 280 295 326 339 337 340 343 342 338 336 335 334 335 338 337 337 338 339 340 340 343 347 350
25 33 44 74 27 344 331 75 10 339 25 13 299 248 222 191 231 273 190 190 199 191 175 127 41 33 58 88 326 304 263 301 321 324 324 328 329 335 338 338 331 328 328 330 334 337 338 338 337 337 338 339 341 343